Year,Month,Day,Hour,Minute,Value (Times are PST for temperature in C)
2010,08,14,00,00,16.90
2010,08,14,00,01,16.90
2010,08,14,00,02,16.80
2010,08,14,00,03,16.80
2010,08,14,00,04,16.70
2010,08,14,00,05,16.70
2010,08,14,00,06,16.70
2010,08,14,00,07,16.70
2010,08,14,00,08,16.70
2010,08,14,00,09,16.70
2010,08,14,00,10,16.70
2010,08,14,00,11,16.70
2010,08,14,00,12,16.70
2010,08,14,00,13,16.70
2010,08,14,00,14,16.70
2010,08,14,00,15,16.70
2010,08,14,00,16,16.70
2010,08,14,00,17,16.70
2010,08,14,00,18,16.70
2010,08,14,00,19,16.80
2010,08,14,00,20,16.90
2010,08,14,00,21,16.90
2010,08,14,00,22,16.90
2010,08,14,00,23,16.80
2010,08,14,00,24,16.80
2010,08,14,00,25,16.80
2010,08,14,00,26,16.80
2010,08,14,00,27,16.80
2010,08,14,00,28,16.80
2010,08,14,00,29,16.80
2010,08,14,00,30,16.80
2010,08,14,00,31,16.80
2010,08,14,00,32,16.80
2010,08,14,00,33,16.80
2010,08,14,00,34,16.70
2010,08,14,00,35,16.70
2010,08,14,00,36,16.70
2010,08,14,00,37,16.70
2010,08,14,00,38,16.70
2010,08,14,00,39,16.70
2010,08,14,00,40,16.70
2010,08,14,00,41,16.70
2010,08,14,00,42,16.80
2010,08,14,00,43,16.80
2010,08,14,00,44,16.70
2010,08,14,00,45,16.70
2010,08,14,00,46,16.70
2010,08,14,00,47,16.80
2010,08,14,00,48,16.80
2010,08,14,00,49,16.80
2010,08,14,00,50,16.80
2010,08,14,00,51,16.80
2010,08,14,00,52,16.80
2010,08,14,00,53,16.90
2010,08,14,00,54,16.90
2010,08,14,00,55,17.00
2010,08,14,00,56,17.00
2010,08,14,00,57,17.00
2010,08,14,00,58,17.10
2010,08,14,00,59,17.10
2010,08,14,01,00,17.10
2010,08,14,01,01,17.10
2010,08,14,01,02,17.10
2010,08,14,01,03,17.00
2010,08,14,01,04,17.00
2010,08,14,01,05,17.00
2010,08,14,01,06,17.00
2010,08,14,01,07,17.00
2010,08,14,01,08,17.00
2010,08,14,01,09,17.00
2010,08,14,01,10,17.00
2010,08,14,01,11,16.90
2010,08,14,01,12,16.90
2010,08,14,01,13,16.90
2010,08,14,01,14,16.90
2010,08,14,01,15,16.90
2010,08,14,01,16,16.90
2010,08,14,01,17,16.80
2010,08,14,01,18,16.80
2010,08,14,01,19,16.80
2010,08,14,01,20,16.80
2010,08,14,01,21,16.90
2010,08,14,01,22,16.90
2010,08,14,01,23,16.90
2010,08,14,01,24,16.90
2010,08,14,01,25,16.90
2010,08,14,01,26,16.90
2010,08,14,01,27,16.80
2010,08,14,01,28,16.80
2010,08,14,01,29,16.80
2010,08,14,01,30,16.80
2010,08,14,01,31,16.90
2010,08,14,01,32,16.90
2010,08,14,01,33,16.90
2010,08,14,01,34,16.90
2010,08,14,01,35,16.90
2010,08,14,01,36,16.90
2010,08,14,01,37,16.90
2010,08,14,01,38,16.80
2010,08,14,01,39,16.80
2010,08,14,01,40,16.80
2010,08,14,01,41,16.80
2010,08,14,01,42,16.80
2010,08,14,01,43,16.80
2010,08,14,01,44,16.80
2010,08,14,01,45,16.80
2010,08,14,01,46,16.80
2010,08,14,01,47,16.80
2010,08,14,01,48,16.80
2010,08,14,01,49,16.80
2010,08,14,01,50,16.70
2010,08,14,01,51,16.70
2010,08,14,01,52,16.80
2010,08,14,01,53,16.90
2010,08,14,01,54,17.10
2010,08,14,01,55,17.30
2010,08,14,01,56,17.40
2010,08,14,01,57,17.40
2010,08,14,01,58,17.50
2010,08,14,01,59,17.50
2010,08,14,02,00,17.50
2010,08,14,02,01,17.50
2010,08,14,02,02,17.60
2010,08,14,02,03,17.60
2010,08,14,02,04,17.60
2010,08,14,02,05,17.70
2010,08,14,02,06,17.70
2010,08,14,02,07,17.80
2010,08,14,02,08,17.80
2010,08,14,02,09,17.80
2010,08,14,02,10,17.80
2010,08,14,02,11,17.80
2010,08,14,02,12,17.80
2010,08,14,02,13,17.70
2010,08,14,02,14,17.70
2010,08,14,02,15,17.60
2010,08,14,02,16,17.50
2010,08,14,02,17,17.50
2010,08,14,02,18,17.50
2010,08,14,02,19,17.50
2010,08,14,02,20,17.50
2010,08,14,02,21,17.50
2010,08,14,02,22,17.40
2010,08,14,02,23,17.40
2010,08,14,02,24,17.40
2010,08,14,02,25,17.50
2010,08,14,02,26,17.50
2010,08,14,02,27,17.50
2010,08,14,02,28,17.50
2010,08,14,02,29,17.50
2010,08,14,02,30,17.50
2010,08,14,02,31,17.40
2010,08,14,02,32,17.40
2010,08,14,02,33,17.30
2010,08,14,02,34,17.30
2010,08,14,02,35,17.20
2010,08,14,02,36,17.10
2010,08,14,02,37,17.10
2010,08,14,02,38,17.00
2010,08,14,02,39,16.90
2010,08,14,02,40,16.90
2010,08,14,02,41,16.80
2010,08,14,02,42,16.70
2010,08,14,02,43,16.70
2010,08,14,02,44,16.60
2010,08,14,02,45,16.60
2010,08,14,02,46,16.40
2010,08,14,02,47,16.40
2010,08,14,02,48,16.30
2010,08,14,02,49,16.30
2010,08,14,02,50,16.20
2010,08,14,02,51,16.20
2010,08,14,02,52,16.10
2010,08,14,02,53,16.10
2010,08,14,02,54,16.10
2010,08,14,02,55,16.00
2010,08,14,02,56,15.90
2010,08,14,02,57,15.90
2010,08,14,02,58,15.80
2010,08,14,02,59,15.80
2010,08,14,03,00,15.80
2010,08,14,03,01,15.80
2010,08,14,03,02,15.80
2010,08,14,03,03,15.90
2010,08,14,03,04,15.90
2010,08,14,03,05,15.90
2010,08,14,03,06,15.90
2010,08,14,03,07,15.90
2010,08,14,03,08,15.90
2010,08,14,03,09,15.90
2010,08,14,03,10,15.90
2010,08,14,03,11,15.90
2010,08,14,03,12,15.90
2010,08,14,03,13,15.90
2010,08,14,03,14,15.90
2010,08,14,03,15,15.90
2010,08,14,03,16,15.90
2010,08,14,03,17,15.90
2010,08,14,03,18,15.90
2010,08,14,03,19,15.90
2010,08,14,03,20,15.80
2010,08,14,03,21,15.80
2010,08,14,03,22,15.80
2010,08,14,03,23,15.80
2010,08,14,03,24,15.80
2010,08,14,03,25,15.80
2010,08,14,03,26,15.80
2010,08,14,03,27,15.80
2010,08,14,03,28,15.80
2010,08,14,03,29,15.80
2010,08,14,03,30,15.70
2010,08,14,03,31,15.70
2010,08,14,03,32,15.70
2010,08,14,03,33,15.70
2010,08,14,03,34,15.60
2010,08,14,03,35,15.60
2010,08,14,03,36,15.60
2010,08,14,03,37,15.50
2010,08,14,03,38,15.50
2010,08,14,03,39,15.50
2010,08,14,03,40,15.50
2010,08,14,03,41,15.40
2010,08,14,03,42,15.40
2010,08,14,03,43,15.40
2010,08,14,03,44,15.40
2010,08,14,03,45,15.40
2010,08,14,03,46,15.40
2010,08,14,03,47,15.40
2010,08,14,03,48,15.40
2010,08,14,03,49,15.50
2010,08,14,03,50,15.60
2010,08,14,03,51,15.60
2010,08,14,03,52,15.60
2010,08,14,03,53,15.60
2010,08,14,03,54,15.60
2010,08,14,03,55,15.60
2010,08,14,03,56,15.60
2010,08,14,03,57,15.60
2010,08,14,03,58,15.60
2010,08,14,03,59,15.60
2010,08,14,04,00,15.60
2010,08,14,04,01,15.50
2010,08,14,04,02,15.50
2010,08,14,04,03,15.50
2010,08,14,04,04,15.50
2010,08,14,04,05,15.50
2010,08,14,04,06,15.50
2010,08,14,04,07,15.50
2010,08,14,04,08,15.50
2010,08,14,04,09,15.50
2010,08,14,04,10,15.50
2010,08,14,04,11,15.50
2010,08,14,04,12,15.50
2010,08,14,04,13,15.50
2010,08,14,04,14,15.50
2010,08,14,04,15,15.50
2010,08,14,04,16,15.40
2010,08,14,04,17,15.40
2010,08,14,04,18,15.40
2010,08,14,04,19,15.30
2010,08,14,04,20,15.30
2010,08,14,04,21,15.30
2010,08,14,04,22,15.30
2010,08,14,04,23,15.30
2010,08,14,04,24,15.30
2010,08,14,04,25,15.30
2010,08,14,04,26,15.30
2010,08,14,04,27,15.30
2010,08,14,04,28,15.30
2010,08,14,04,29,15.30
2010,08,14,04,30,15.30
2010,08,14,04,31,15.30
2010,08,14,04,32,15.30
2010,08,14,04,33,15.30
2010,08,14,04,34,15.30
2010,08,14,04,35,15.30
2010,08,14,04,36,15.30
2010,08,14,04,37,15.30
2010,08,14,04,38,15.20
2010,08,14,04,39,15.20
2010,08,14,04,40,15.20
2010,08,14,04,41,15.20
2010,08,14,04,42,15.20
2010,08,14,04,43,15.20
2010,08,14,04,44,15.20
2010,08,14,04,45,15.10
2010,08,14,04,46,15.10
2010,08,14,04,47,15.10
2010,08,14,04,48,15.00
2010,08,14,04,49,15.00
2010,08,14,04,50,14.90
2010,08,14,04,51,14.90
2010,08,14,04,52,14.90
2010,08,14,04,53,14.80
2010,08,14,04,54,14.80
2010,08,14,04,55,14.80
2010,08,14,04,56,14.80
2010,08,14,04,57,14.80
2010,08,14,04,58,14.70
2010,08,14,04,59,14.70
2010,08,14,05,00,14.70
2010,08,14,05,01,14.70
2010,08,14,05,02,14.70
2010,08,14,05,03,14.70
2010,08,14,05,04,14.60
2010,08,14,05,05,14.60
2010,08,14,05,06,14.60
2010,08,14,05,07,14.60
2010,08,14,05,08,14.50
2010,08,14,05,09,14.50
2010,08,14,05,10,14.50
2010,08,14,05,11,14.50
2010,08,14,05,12,14.40
2010,08,14,05,13,14.40
2010,08,14,05,14,14.40
2010,08,14,05,15,14.50
2010,08,14,05,16,14.50
2010,08,14,05,17,14.40
2010,08,14,05,18,14.40
2010,08,14,05,19,14.40
2010,08,14,05,20,14.50
2010,08,14,05,21,14.50
2010,08,14,05,22,14.50
2010,08,14,05,23,14.50
2010,08,14,05,24,14.50
2010,08,14,05,25,14.50
2010,08,14,05,26,14.50
2010,08,14,05,27,14.60
2010,08,14,05,28,14.60
2010,08,14,05,29,14.70
2010,08,14,05,30,14.80
2010,08,14,05,31,14.80
2010,08,14,05,32,14.80
2010,08,14,05,33,14.80
2010,08,14,05,34,14.80
2010,08,14,05,35,14.80
2010,08,14,05,36,14.80
2010,08,14,05,37,14.80
2010,08,14,05,38,14.80
2010,08,14,05,39,14.80
2010,08,14,05,40,14.80
2010,08,14,05,41,14.80
2010,08,14,05,42,14.80
2010,08,14,05,43,14.80
2010,08,14,05,44,14.80
2010,08,14,05,45,14.80
2010,08,14,05,46,14.80
2010,08,14,05,47,14.80
2010,08,14,05,48,14.80
2010,08,14,05,49,14.80
2010,08,14,05,50,14.80
2010,08,14,05,51,14.80
2010,08,14,05,52,14.80
2010,08,14,05,53,14.80
2010,08,14,05,54,14.80
2010,08,14,05,55,14.80
2010,08,14,05,56,14.80
2010,08,14,05,57,14.80
2010,08,14,05,58,14.80
2010,08,14,05,59,14.80
2010,08,14,06,00,14.90
2010,08,14,06,01,14.90
2010,08,14,06,02,15.00
2010,08,14,06,03,15.00
2010,08,14,06,04,15.00
2010,08,14,06,05,15.00
2010,08,14,06,06,15.00
2010,08,14,06,07,15.00
2010,08,14,06,08,14.90
2010,08,14,06,09,14.90
2010,08,14,06,10,14.90
2010,08,14,06,11,15.00
2010,08,14,06,12,15.00
2010,08,14,06,13,15.10
2010,08,14,06,14,15.10
2010,08,14,06,15,15.10
2010,08,14,06,16,15.10
2010,08,14,06,17,15.20
2010,08,14,06,18,15.20
2010,08,14,06,19,15.20
2010,08,14,06,20,15.20
2010,08,14,06,21,15.20
2010,08,14,06,22,15.20
2010,08,14,06,23,15.30
2010,08,14,06,24,15.30
2010,08,14,06,25,15.30
2010,08,14,06,26,15.30
2010,08,14,06,27,15.30
2010,08,14,06,28,15.30
2010,08,14,06,29,15.30
2010,08,14,06,30,15.40
2010,08,14,06,31,15.50
2010,08,14,06,32,15.50
2010,08,14,06,33,15.60
2010,08,14,06,34,15.60
2010,08,14,06,35,15.70
2010,08,14,06,36,15.70
2010,08,14,06,37,15.80
2010,08,14,06,38,15.80
2010,08,14,06,39,15.80
2010,08,14,06,40,15.80
2010,08,14,06,41,15.90
2010,08,14,06,42,15.90
2010,08,14,06,43,16.00
2010,08,14,06,44,16.10
2010,08,14,06,45,16.10
2010,08,14,06,46,16.10
2010,08,14,06,47,16.10
2010,08,14,06,48,16.20
2010,08,14,06,49,16.30
2010,08,14,06,50,16.30
2010,08,14,06,51,16.30
2010,08,14,06,52,16.40
2010,08,14,06,53,16.40
2010,08,14,06,54,16.40
2010,08,14,06,55,16.40
2010,08,14,06,56,16.40
2010,08,14,06,57,16.60
2010,08,14,06,58,16.60
2010,08,14,06,59,16.60
2010,08,14,07,00,16.60
2010,08,14,07,01,16.70
2010,08,14,07,02,16.70
2010,08,14,07,03,16.70
2010,08,14,07,04,16.80
2010,08,14,07,05,16.80
2010,08,14,07,06,16.90
2010,08,14,07,07,16.90
2010,08,14,07,08,17.00
2010,08,14,07,09,17.00
2010,08,14,07,10,17.10
2010,08,14,07,11,17.20
2010,08,14,07,12,17.20
2010,08,14,07,13,17.30
2010,08,14,07,14,17.40
2010,08,14,07,15,17.50
2010,08,14,07,16,17.50
2010,08,14,07,17,17.60
2010,08,14,07,18,17.70
2010,08,14,07,19,17.80
2010,08,14,07,20,17.80
2010,08,14,07,21,17.70
2010,08,14,07,22,17.70
2010,08,14,07,23,17.70
2010,08,14,07,24,17.70
2010,08,14,07,25,17.70
2010,08,14,07,26,17.70
2010,08,14,07,27,17.80
2010,08,14,07,28,17.80
2010,08,14,07,29,17.80
2010,08,14,07,30,17.90
2010,08,14,07,31,18.00
2010,08,14,07,32,18.10
2010,08,14,07,33,18.20
2010,08,14,07,34,18.30
2010,08,14,07,35,18.40
2010,08,14,07,36,18.40
2010,08,14,07,37,18.50
2010,08,14,07,38,18.50
2010,08,14,07,39,18.50
2010,08,14,07,40,18.50
2010,08,14,07,41,18.50
2010,08,14,07,42,18.40
2010,08,14,07,43,18.40
2010,08,14,07,44,18.40
2010,08,14,07,45,18.50
2010,08,14,07,46,18.50
2010,08,14,07,47,18.50
2010,08,14,07,48,18.60
2010,08,14,07,49,18.60
2010,08,14,07,50,18.70
2010,08,14,07,51,18.70
2010,08,14,07,52,18.70
2010,08,14,07,53,18.70
2010,08,14,07,54,18.70
2010,08,14,07,55,18.70
2010,08,14,07,56,18.70
2010,08,14,07,57,18.70
2010,08,14,07,58,18.70
2010,08,14,07,59,18.70
2010,08,14,08,00,18.70
2010,08,14,08,01,18.70
2010,08,14,08,02,18.60
2010,08,14,08,03,18.60
2010,08,14,08,04,18.60
2010,08,14,08,05,18.60
2010,08,14,08,06,18.70
2010,08,14,08,07,18.70
2010,08,14,08,08,18.80
2010,08,14,08,09,18.80
2010,08,14,08,10,18.90
2010,08,14,08,11,18.90
2010,08,14,08,12,19.00
2010,08,14,08,13,19.10
2010,08,14,08,14,19.10
2010,08,14,08,15,19.10
2010,08,14,08,16,19.20
2010,08,14,08,17,19.20
2010,08,14,08,18,19.30
2010,08,14,08,19,19.40
2010,08,14,08,20,19.40
2010,08,14,08,21,19.60
2010,08,14,08,22,19.70
2010,08,14,08,23,19.80
2010,08,14,08,24,19.90
2010,08,14,08,25,20.00
2010,08,14,08,26,20.10
2010,08,14,08,27,20.20
2010,08,14,08,28,20.30
2010,08,14,08,29,20.40
2010,08,14,08,30,20.50
2010,08,14,08,31,20.50
2010,08,14,08,32,20.60
2010,08,14,08,33,20.80
2010,08,14,08,34,20.90
2010,08,14,08,35,21.00
2010,08,14,08,36,21.00
2010,08,14,08,37,21.10
2010,08,14,08,38,21.20
2010,08,14,08,39,21.30
2010,08,14,08,40,21.40
2010,08,14,08,41,21.50
2010,08,14,08,42,21.60
2010,08,14,08,43,21.60
2010,08,14,08,44,21.70
2010,08,14,08,45,21.70
2010,08,14,08,46,21.80
2010,08,14,08,47,21.80
2010,08,14,08,48,21.80
2010,08,14,08,49,21.90
2010,08,14,08,50,21.90
2010,08,14,08,51,21.90
2010,08,14,08,52,22.00
2010,08,14,08,53,22.10
2010,08,14,08,54,22.10
2010,08,14,08,55,22.10
2010,08,14,08,56,22.10
2010,08,14,08,57,22.10
2010,08,14,08,58,22.20
2010,08,14,08,59,22.30
2010,08,14,09,00,22.40
2010,08,14,09,01,22.40
2010,08,14,09,02,22.40
2010,08,14,09,03,22.40
2010,08,14,09,04,22.40
2010,08,14,09,05,22.50
2010,08,14,09,06,22.60
2010,08,14,09,07,22.70
2010,08,14,09,08,22.70
2010,08,14,09,09,22.70
2010,08,14,09,10,22.70
2010,08,14,09,11,22.80
2010,08,14,09,12,22.80
2010,08,14,09,13,22.90
2010,08,14,09,14,22.90
2010,08,14,09,15,23.00
2010,08,14,09,16,23.10
2010,08,14,09,17,23.20
2010,08,14,09,18,23.20
2010,08,14,09,19,23.30
2010,08,14,09,20,23.40
2010,08,14,09,21,23.50
2010,08,14,09,22,23.60
2010,08,14,09,23,23.70
2010,08,14,09,24,23.70
2010,08,14,09,25,23.90
2010,08,14,09,26,24.00
2010,08,14,09,27,24.10
2010,08,14,09,28,24.10
2010,08,14,09,29,24.10
2010,08,14,09,30,24.10
2010,08,14,09,31,24.10
2010,08,14,09,32,24.10
2010,08,14,09,33,24.10
2010,08,14,09,34,24.20
2010,08,14,09,35,24.20
2010,08,14,09,36,24.20
2010,08,14,09,37,24.30
2010,08,14,09,38,24.30
2010,08,14,09,39,24.40
2010,08,14,09,40,24.40
2010,08,14,09,41,24.50
2010,08,14,09,42,24.60
2010,08,14,09,43,24.70
2010,08,14,09,44,24.80
2010,08,14,09,45,24.90
2010,08,14,09,46,25.10
2010,08,14,09,47,25.30
2010,08,14,09,48,25.50
2010,08,14,09,49,25.70
2010,08,14,09,50,25.90
2010,08,14,09,51,26.00
2010,08,14,09,52,26.00
2010,08,14,09,53,26.00
2010,08,14,09,54,26.10
2010,08,14,09,55,26.10
2010,08,14,09,56,26.20
2010,08,14,09,57,26.30
2010,08,14,09,58,26.30
2010,08,14,09,59,26.30
2010,08,14,10,00,26.40
2010,08,14,10,01,26.40
2010,08,14,10,02,26.50
2010,08,14,10,03,26.60
2010,08,14,10,04,26.70
2010,08,14,10,05,26.70
2010,08,14,10,06,26.70
2010,08,14,10,07,26.70
2010,08,14,10,08,26.70
2010,08,14,10,09,26.80
2010,08,14,10,10,26.80
2010,08,14,10,11,26.80
2010,08,14,10,12,27.00
2010,08,14,10,13,27.10
2010,08,14,10,14,27.10
2010,08,14,10,15,27.20
2010,08,14,10,16,27.10
2010,08,14,10,17,27.10
2010,08,14,10,18,27.10
2010,08,14,10,19,27.00
2010,08,14,10,20,26.90
2010,08,14,10,21,27.10
2010,08,14,10,22,27.10
2010,08,14,10,23,27.10
2010,08,14,10,24,27.20
2010,08,14,10,25,27.30
2010,08,14,10,26,27.30
2010,08,14,10,27,27.30
2010,08,14,10,28,27.50
2010,08,14,10,29,27.80
2010,08,14,10,30,27.90
2010,08,14,10,31,28.10
2010,08,14,10,32,28.20
2010,08,14,10,33,28.40
2010,08,14,10,34,28.40
2010,08,14,10,35,28.40
2010,08,14,10,36,28.40
2010,08,14,10,37,28.50
2010,08,14,10,38,28.60
2010,08,14,10,39,28.50
2010,08,14,10,40,28.50
2010,08,14,10,41,28.60
2010,08,14,10,42,28.70
2010,08,14,10,43,28.80
2010,08,14,10,44,28.90
2010,08,14,10,45,28.90
2010,08,14,10,46,28.90
2010,08,14,10,47,28.90
2010,08,14,10,48,28.90
2010,08,14,10,49,29.00
2010,08,14,10,50,29.10
2010,08,14,10,51,29.10
2010,08,14,10,52,29.10
2010,08,14,10,53,29.10
2010,08,14,10,54,29.20
2010,08,14,10,55,29.40
2010,08,14,10,56,29.60
2010,08,14,10,57,29.70
2010,08,14,10,58,29.80
2010,08,14,10,59,29.90
2010,08,14,11,00,30.00
2010,08,14,11,01,30.10
2010,08,14,11,02,30.20
2010,08,14,11,03,30.30
2010,08,14,11,04,30.40
2010,08,14,11,05,30.60
2010,08,14,11,06,30.70
2010,08,14,11,07,30.90
2010,08,14,11,08,30.90
2010,08,14,11,09,30.80
2010,08,14,11,10,30.70
2010,08,14,11,11,30.70
2010,08,14,11,12,30.70
2010,08,14,11,13,30.70
2010,08,14,11,14,30.70
2010,08,14,11,15,30.70
2010,08,14,11,16,30.80
2010,08,14,11,17,30.80
2010,08,14,11,18,30.90
2010,08,14,11,19,30.90
2010,08,14,11,20,30.70
2010,08,14,11,21,30.70
2010,08,14,11,22,30.80
2010,08,14,11,23,30.80
2010,08,14,11,24,30.80
2010,08,14,11,25,30.70
2010,08,14,11,26,30.50
2010,08,14,11,27,30.10
2010,08,14,11,28,29.80
2010,08,14,11,29,29.60
2010,08,14,11,30,29.60
2010,08,14,11,31,29.80
2010,08,14,11,32,30.00
2010,08,14,11,33,30.10
2010,08,14,11,34,30.10
2010,08,14,11,35,30.10
2010,08,14,11,36,30.20
2010,08,14,11,37,30.50
2010,08,14,11,38,30.60
2010,08,14,11,39,30.70
2010,08,14,11,40,30.70
2010,08,14,11,41,30.70
2010,08,14,11,42,30.70
2010,08,14,11,43,30.70
2010,08,14,11,44,30.70
2010,08,14,11,45,30.80
2010,08,14,11,46,30.80
2010,08,14,11,47,30.80
2010,08,14,11,48,30.80
2010,08,14,11,49,30.80
2010,08,14,11,50,30.70
2010,08,14,11,51,30.70
2010,08,14,11,52,30.80
2010,08,14,11,53,30.80
2010,08,14,11,54,30.80
2010,08,14,11,55,30.80
2010,08,14,11,56,30.70
2010,08,14,11,57,30.70
2010,08,14,11,58,30.80
2010,08,14,11,59,30.80
2010,08,14,12,00,30.90
2010,08,14,12,01,30.90
2010,08,14,12,02,31.00
2010,08,14,12,03,31.00
2010,08,14,12,04,31.10
2010,08,14,12,05,31.10
2010,08,14,12,06,31.30
2010,08,14,12,07,31.20
2010,08,14,12,08,31.20
2010,08,14,12,09,31.10
2010,08,14,12,10,31.10
2010,08,14,12,11,31.20
2010,08,14,12,12,31.20
2010,08,14,12,13,31.20
2010,08,14,12,14,31.30
2010,08,14,12,15,31.30
2010,08,14,12,16,31.30
2010,08,14,12,17,31.40
2010,08,14,12,18,31.40
2010,08,14,12,19,31.30
2010,08,14,12,20,31.30
2010,08,14,12,21,31.20
2010,08,14,12,22,31.10
2010,08,14,12,23,31.00
2010,08,14,12,24,31.10
2010,08,14,12,25,31.10
2010,08,14,12,26,31.20
2010,08,14,12,27,31.20
2010,08,14,12,28,31.20
2010,08,14,12,29,31.20
2010,08,14,12,30,31.10
2010,08,14,12,31,30.90
2010,08,14,12,32,30.80
2010,08,14,12,33,30.90
2010,08,14,12,34,30.90
2010,08,14,12,35,30.90
2010,08,14,12,36,30.90
2010,08,14,12,37,30.80
2010,08,14,12,38,30.70
2010,08,14,12,39,30.70
2010,08,14,12,40,30.80
2010,08,14,12,41,30.90
2010,08,14,12,42,30.90
2010,08,14,12,43,30.80
2010,08,14,12,44,30.70
2010,08,14,12,45,30.70
2010,08,14,12,46,30.70
2010,08,14,12,47,30.80
2010,08,14,12,48,30.80
2010,08,14,12,49,30.80
2010,08,14,12,50,30.80
2010,08,14,12,51,30.80
2010,08,14,12,52,30.80
2010,08,14,12,53,30.90
2010,08,14,12,54,31.00
2010,08,14,12,55,31.00
2010,08,14,12,56,31.00
2010,08,14,12,57,31.10
2010,08,14,12,58,31.10
2010,08,14,12,59,31.00
2010,08,14,13,00,31.00
2010,08,14,13,01,31.00
2010,08,14,13,02,30.90
2010,08,14,13,03,30.90
2010,08,14,13,04,30.90
2010,08,14,13,05,31.00
2010,08,14,13,06,31.10
2010,08,14,13,07,31.10
2010,08,14,13,08,31.10
2010,08,14,13,09,31.20
2010,08,14,13,10,31.30
2010,08,14,13,11,31.30
2010,08,14,13,12,31.20
2010,08,14,13,13,31.20
2010,08,14,13,14,31.30
2010,08,14,13,15,31.40
2010,08,14,13,16,31.40
2010,08,14,13,17,31.40
2010,08,14,13,18,31.50
2010,08,14,13,19,31.60
2010,08,14,13,20,31.60
2010,08,14,13,21,31.60
2010,08,14,13,22,31.60
2010,08,14,13,23,31.60
2010,08,14,13,24,31.60
2010,08,14,13,25,31.60
2010,08,14,13,26,31.50
2010,08,14,13,27,31.30
2010,08,14,13,28,31.20
2010,08,14,13,29,31.10
2010,08,14,13,30,31.10
2010,08,14,13,31,31.00
2010,08,14,13,32,31.00
2010,08,14,13,33,31.00
2010,08,14,13,34,30.90
2010,08,14,13,35,31.00
2010,08,14,13,36,31.10
2010,08,14,13,37,31.10
2010,08,14,13,38,31.10
2010,08,14,13,39,31.10
2010,08,14,13,40,31.10
2010,08,14,13,41,31.10
2010,08,14,13,42,31.20
2010,08,14,13,43,31.20
2010,08,14,13,44,31.20
2010,08,14,13,45,31.10
2010,08,14,13,46,31.10
2010,08,14,13,47,31.00
2010,08,14,13,48,31.10
2010,08,14,13,49,31.10
2010,08,14,13,50,31.10
2010,08,14,13,51,31.20
2010,08,14,13,52,31.20
2010,08,14,13,53,31.10
2010,08,14,13,54,31.00
2010,08,14,13,55,30.90
2010,08,14,13,56,30.80
2010,08,14,13,57,30.70
2010,08,14,13,58,30.60
2010,08,14,13,59,30.60
2010,08,14,14,00,30.60
2010,08,14,14,01,30.50
2010,08,14,14,02,30.40
2010,08,14,14,03,30.40
2010,08,14,14,04,30.40
2010,08,14,14,05,30.60
2010,08,14,14,06,30.60
2010,08,14,14,07,30.40
2010,08,14,14,08,30.20
2010,08,14,14,09,30.10
2010,08,14,14,10,30.10
2010,08,14,14,11,30.20
2010,08,14,14,12,30.30
2010,08,14,14,13,30.60
2010,08,14,14,14,30.80
2010,08,14,14,15,30.80
2010,08,14,14,16,30.90
2010,08,14,14,17,30.90
2010,08,14,14,18,30.80
2010,08,14,14,19,30.70
2010,08,14,14,20,30.70
2010,08,14,14,21,30.70
2010,08,14,14,22,30.70
2010,08,14,14,23,30.60
2010,08,14,14,24,30.60
2010,08,14,14,25,30.60
2010,08,14,14,26,30.70
2010,08,14,14,27,30.70
2010,08,14,14,28,30.70
2010,08,14,14,29,30.70
2010,08,14,14,30,30.80
2010,08,14,14,31,30.90
2010,08,14,14,32,30.90
2010,08,14,14,33,30.90
2010,08,14,14,34,31.00
2010,08,14,14,35,31.10
2010,08,14,14,36,31.20
2010,08,14,14,37,31.30
2010,08,14,14,38,31.30
2010,08,14,14,39,31.30
2010,08,14,14,40,31.40
2010,08,14,14,41,31.50
2010,08,14,14,42,31.60
2010,08,14,14,43,31.60
2010,08,14,14,44,31.60
2010,08,14,14,45,31.60
2010,08,14,14,46,31.50
2010,08,14,14,47,31.40
2010,08,14,14,48,31.40
2010,08,14,14,49,31.40
2010,08,14,14,50,31.30
2010,08,14,14,51,31.30
2010,08,14,14,52,31.40
2010,08,14,14,53,31.50
2010,08,14,14,54,31.50
2010,08,14,14,55,31.60
2010,08,14,14,56,31.60
2010,08,14,14,57,31.50
2010,08,14,14,58,31.40
2010,08,14,14,59,31.60
2010,08,14,15,00,31.60
2010,08,14,15,01,31.60
2010,08,14,15,02,31.50
2010,08,14,15,03,31.50
2010,08,14,15,04,31.60
2010,08,14,15,05,31.60
2010,08,14,15,06,31.60
2010,08,14,15,07,31.60
2010,08,14,15,08,31.60
2010,08,14,15,09,31.60
2010,08,14,15,10,31.60
2010,08,14,15,11,31.60
2010,08,14,15,12,31.60
2010,08,14,15,13,31.70
2010,08,14,15,14,31.80
2010,08,14,15,15,31.90
2010,08,14,15,16,32.00
2010,08,14,15,17,32.10
2010,08,14,15,18,32.00
2010,08,14,15,19,31.90
2010,08,14,15,20,31.90
2010,08,14,15,21,31.80
2010,08,14,15,22,31.70
2010,08,14,15,23,31.70
2010,08,14,15,24,31.70
2010,08,14,15,25,31.80
2010,08,14,15,26,31.80
2010,08,14,15,27,31.70
2010,08,14,15,28,31.80
2010,08,14,15,29,31.90
2010,08,14,15,30,31.90
2010,08,14,15,31,31.90
2010,08,14,15,32,32.10
2010,08,14,15,33,32.10
2010,08,14,15,34,32.10
2010,08,14,15,35,32.10
2010,08,14,15,36,31.90
2010,08,14,15,37,32.00
2010,08,14,15,38,32.10
2010,08,14,15,39,32.20
2010,08,14,15,40,32.30
2010,08,14,15,41,32.10
2010,08,14,15,42,32.00
2010,08,14,15,43,31.90
2010,08,14,15,44,32.00
2010,08,14,15,45,32.10
2010,08,14,15,46,32.10
2010,08,14,15,47,32.00
2010,08,14,15,48,32.10
2010,08,14,15,49,32.10
2010,08,14,15,50,32.10
2010,08,14,15,51,32.10
2010,08,14,15,52,32.10
2010,08,14,15,53,32.00
2010,08,14,15,54,31.90
2010,08,14,15,55,31.90
2010,08,14,15,56,32.00
2010,08,14,15,57,32.10
2010,08,14,15,58,32.10
2010,08,14,15,59,32.20
2010,08,14,16,00,32.20
2010,08,14,16,01,32.10
2010,08,14,16,02,32.10
2010,08,14,16,03,32.00
2010,08,14,16,04,32.00
2010,08,14,16,05,32.10
2010,08,14,16,06,32.10
2010,08,14,16,07,32.10
2010,08,14,16,08,32.10
2010,08,14,16,09,32.10
2010,08,14,16,10,32.30
2010,08,14,16,11,32.30
2010,08,14,16,12,32.30
2010,08,14,16,13,32.30
2010,08,14,16,14,32.20
2010,08,14,16,15,32.30
2010,08,14,16,16,32.30
2010,08,14,16,17,32.30
2010,08,14,16,18,32.30
2010,08,14,16,19,32.10
2010,08,14,16,20,32.00
2010,08,14,16,21,32.10
2010,08,14,16,22,32.10
2010,08,14,16,23,32.10
2010,08,14,16,24,31.90
2010,08,14,16,25,31.90
2010,08,14,16,26,32.00
2010,08,14,16,27,32.10
2010,08,14,16,28,32.10
2010,08,14,16,29,32.10
2010,08,14,16,30,32.20
2010,08,14,16,31,32.20
2010,08,14,16,32,32.20
2010,08,14,16,33,32.20
2010,08,14,16,34,32.20
2010,08,14,16,35,32.30
2010,08,14,16,36,32.30
2010,08,14,16,37,32.40
2010,08,14,16,38,32.40
2010,08,14,16,39,32.40
2010,08,14,16,40,32.50
2010,08,14,16,41,32.50
2010,08,14,16,42,32.40
2010,08,14,16,43,32.40
2010,08,14,16,44,32.40
2010,08,14,16,45,32.40
2010,08,14,16,46,32.40
2010,08,14,16,47,32.50
2010,08,14,16,48,32.50
2010,08,14,16,49,32.50
2010,08,14,16,50,32.60
2010,08,14,16,51,32.70
2010,08,14,16,52,32.80
2010,08,14,16,53,32.90
2010,08,14,16,54,33.00
2010,08,14,16,55,33.00
2010,08,14,16,56,33.00
2010,08,14,16,57,33.00
2010,08,14,16,58,33.00
2010,08,14,16,59,33.00
2010,08,14,17,00,33.00
2010,08,14,17,01,33.00
2010,08,14,17,02,33.10
2010,08,14,17,03,33.10
2010,08,14,17,04,33.00
2010,08,14,17,05,33.00
2010,08,14,17,06,33.00
2010,08,14,17,07,33.00
2010,08,14,17,08,33.00
2010,08,14,17,09,33.00
2010,08,14,17,10,33.00
2010,08,14,17,11,33.00
2010,08,14,17,12,33.00
2010,08,14,17,13,33.00
2010,08,14,17,14,33.10
2010,08,14,17,15,33.10
2010,08,14,17,16,33.10
2010,08,14,17,17,33.20
2010,08,14,17,18,33.20
2010,08,14,17,19,33.20